Montpelier, VT

2:15 PM EST on November 18, 2019 (GMT -0500)
Knapp State

Weather History for KMPV - August, 2019

Change the Weather History Date:

Thursday, August 22, 2019

  Actual Average Record
Temperature  
Mean Temperature 66 °F 65 °F  
Max Temperature 78 °F 76 °F 91 °F (1955)
Min Temperature 55 °F 53 °F 39 °F (1950)
Degree Days  
Heating Degree Days 0 2  
Month to date heating degree days 22 40  
Since 1 June heating degree days 175 201  
Since 1 July heating degree days 31 80  
Cooling Degree Days 2 2  
Month to date cooling degree days 46 60  
Year to date cooling degree days 204 228  
Since 1 June cooling degree days 203 218  
Growing Degree Days 16 (Base 50)    
Moisture  
Dew Point 61 °F    
Average Humidity 90    
Maximum Humidity 100    
Minimum Humidity 50    
Precipitation  
Precipitation 0.00 in 0.11 in 1.13 in (1960)
Month to date precipitation 3.91 3.08  
Year to date precipitation 34.46 23.87  
Sea Level Pressure  
Sea Level Pressure 29.87 in    
Wind  
Wind Speed 2 mph ()    
Max Wind Speed 15 mph    
Max Gust Speed 20 mph    
Visibility 5.3 miles    
Events Fog    
T = Trace of Precipitation, MM = Missing Value Source: Averaged Metar Reports

Daily Weather History Graph

Daily Weather History Graph

Search for Another Location

Airport or City:

Astronomy

Aug. 22, 2019 Rise Set
Actual Time 6:01 AM EDT 7:44 PM EDT
Civil Twilight 5:30 AM EDT 8:14 PM EDT
Nautical Twilight 4:53 AM EDT 8:51 PM EDT
Astronomical Twilight 4:12 AM EDT 9:32 PM EDT
Moon 11:17 PM EDT (8/22) 12:48 PM EDT (8/22)
Length of Visible Light 14h 43m
Length of Day
13h 42m
Waning Gibbous, 60% of the Moon is Illuminated
Aug 22
Waning Gibbous
Aug 23
Last Quarter
Aug 30
New
Sep 5
First Quarter
Sep 14
Full

Hourly Weather History & Observations

Time (EDT) Temp. Dew Point Humidity Pressure Visibility Wind Dir Wind Speed Gust Speed Precip Events Conditions
12:12 AM 63.0 °F 63.0 °F 100% 29.86 in 2.5 mi SSE 3.5 mph - N/A   Mostly Cloudy
12:19 AM 63.0 °F 63.0 °F 100% 29.86 in 4.0 mi Calm Calm - N/A   Scattered Clouds
12:51 AM 62.1 °F 62.1 °F 100% 29.86 in 9.0 mi NNW 3.5 mph - N/A   Clear
12:58 AM 61.0 °F 61.0 °F 100% 29.86 in 2.0 mi Calm Calm - N/A   Partly Cloudy
1:00 AM 61.0 °F 61.0 °F 100% 29.86 in 1.2 mi Calm Calm - N/A   Partly Cloudy
1:02 AM 61.0 °F 61.0 °F 100% 29.86 in 0.8 mi Calm Calm - N/A   Mist
1:51 AM 61.0 °F 61.0 °F 100% 29.86 in 0.2 mi Calm Calm - N/A Fog Fog
2:51 AM 62.1 °F 62.1 °F 100% 29.86 in 0.2 mi Calm Calm - N/A Fog Fog
3:51 AM 61.0 °F 61.0 °F 100% 29.85 in 0.2 mi Calm Calm - N/A Fog Fog
4:06 AM 61.0 °F 61.0 °F 100% 29.85 in 1.2 mi Calm Calm - N/A   Overcast
4:13 AM 61.0 °F 61.0 °F 100% 29.85 in 1.8 mi Calm Calm - N/A   Overcast
4:43 AM 59.0 °F 59.0 °F 100% 29.85 in 0.8 mi Calm Calm - N/A   Mist
4:51 AM 59.0 °F 59.0 °F 100% 29.84 in 0.8 mi Calm Calm - N/A   Mist
5:51 AM 59.0 °F 59.0 °F 100% 29.85 in 0.5 mi Calm Calm - N/A Fog Fog
6:32 AM 59.0 °F 59.0 °F 100% 29.86 in 1.2 mi Calm Calm - N/A   Partly Cloudy
6:35 AM 59.0 °F 59.0 °F 100% 29.85 in 2.5 mi Calm Calm - N/A   Partly Cloudy
6:42 AM 60.1 °F 60.1 °F 100% 29.86 in 10.0 mi Calm Calm - N/A   Partly Cloudy
6:51 AM 61.0 °F 61.0 °F 100% 29.86 in 10.0 mi Calm Calm - N/A   Clear
6:59 AM 61.0 °F 61.0 °F 100% 29.86 in 1.5 mi NNW 3.5 mph - N/A   Partly Cloudy
7:06 AM 61.0 °F 61.0 °F 100% 29.86 in 0.2 mi Calm Calm - N/A Fog Fog
7:21 AM 62.1 °F 62.1 °F 100% 29.86 in 1.2 mi Calm Calm - N/A   Mostly Cloudy
7:28 AM 63.0 °F 63.0 °F 100% 29.87 in 0.8 mi Calm Calm - N/A   Mist
7:41 AM 63.0 °F 63.0 °F 100% 29.86 in 1.2 mi Calm Calm - N/A   Overcast
7:45 AM 62.6 °F 62.6 °F 100% 29.86 in 2.0 mi Calm Calm - N/A   Overcast
7:51 AM 63.0 °F 63.0 °F 100% 29.86 in 5.0 mi Calm Calm - N/A   Overcast
8:19 AM 64.0 °F 64.0 °F 100% 29.86 in 1.2 mi Calm Calm - N/A   Overcast
8:21 AM 64.0 °F 64.0 °F 100% 29.86 in 0.8 mi Calm Calm - N/A   Overcast
8:38 AM 66.0 °F 66.0 °F 100% 29.85 in 1.8 mi Calm Calm - N/A   Mostly Cloudy
8:44 AM 68.0 °F 68.0 °F 100% 29.85 in 10.0 mi Calm Calm - N/A   Scattered Clouds
8:51 AM 66.9 °F 66.9 °F 100% 29.85 in 10.0 mi North 3.5 mph - N/A   Scattered Clouds
9:27 AM 73.0 °F 68.0 °F 84% 29.86 in 10.0 mi SSE 6.9 mph - N/A   Mostly Cloudy
9:51 AM 72.0 °F 70.0 °F 93% 29.86 in 10.0 mi West 3.5 mph - N/A   Overcast
10:51 AM 75.0 °F 66.9 °F 76% 29.86 in 10.0 mi SW 4.6 mph - N/A   Overcast
11:51 AM 75.0 °F 66.9 °F 76% 29.86 in 10.0 mi West 4.6 mph - N/A   Overcast
11:59 AM 73.9 °F 66.9 °F 79% 29.87 in 10.0 mi Variable 5.8 mph - N/A   Mostly Cloudy
12:51 PM 75.0 °F 66.0 °F 73% 29.87 in 10.0 mi NW 6.9 mph - N/A   Mostly Cloudy
1:51 PM 77.0 °F 64.0 °F 64% 29.87 in 10.0 mi Variable 6.9 mph - N/A   Scattered Clouds
2:51 PM 75.0 °F 55.9 °F 51% 29.88 in 10.0 mi WNW 9.2 mph 19.6 mph N/A   Scattered Clouds
3:51 PM 73.9 °F 55.0 °F 52% 29.88 in 10.0 mi WNW 9.2 mph - N/A   Clear
5:51 PM 72.0 °F 55.0 °F 55% 29.89 in 10.0 mi WNW 4.6 mph - N/A   Clear
6:51 PM 71.1 °F 55.9 °F 59% 29.90 in 10.0 mi NNW 3.5 mph - N/A   Clear
7:51 PM 66.0 °F 52.0 °F 60% 29.91 in 10.0 mi NW 5.8 mph - N/A   Clear
8:51 PM 61.0 °F 55.0 °F 81% 29.93 in 10.0 mi West 3.5 mph - N/A   Clear
9:51 PM 60.1 °F 55.0 °F 83% 29.94 in 10.0 mi WSW 4.6 mph - N/A   Clear
10:51 PM 59.0 °F 54.0 °F 83% 29.94 in 10.0 mi Calm Calm - N/A   Clear
11:51 PM 57.9 °F 54.0 °F 87% 29.95 in 10.0 mi Calm Calm - N/A   Clear